When you browse on this site, cookies collect data to enhance your experience and personalize the content and advertising you see.
Visit our Privacy Policy to learn more. By continuing to use the site, you agree to this use of cookies and data.
  • In Austria
  • List of Countries
  • For 7 days
  • Water Temperature
  • Satellite Maps
  • Weather Map
  • News
  • Weather Widgets
  • user-avatar
    Login

    Hourly Weather Birmingham

    Today, 21 January, Monday

    Time Temperature Precipitation Wind Pressure Humidity
    00:00 +2°C° 0 mm 1 mps 755 mmHg 95%
    01:00 +2°C° 0 mm 1 mps 754 mmHg 95%
    02:00 +2°C° 0 mm 1 mps 754 mmHg 95%
    03:00 +1°C° 0 mm 0 mps 754 mmHg 96%
    04:00 +1°C° 0 mm 0 mps 754 mmHg 96%
    05:00 +1°C° 0 mm 0 mps 754 mmHg 96%
    06:00 +1°C° 0 mm 1 mps 754 mmHg 96%
    07:00 +2°C° 0 mm 1 mps 754 mmHg 96%
    08:00 +2°C° 0 mm 1 mps 754 mmHg 96%
    09:00 +1°C° 0 mm 2 mps 753 mmHg 96%
    10:00 +2°C° 0 mm 2 mps 753 mmHg 93%
    11:00 +2°C° 0 mm 3 mps 752 mmHg 90%
    12:00 +3°C° 0 mm 3 mps 752 mmHg 86%
    13:00 +3°C° 0 mm 3 mps 751 mmHg 86%
    14:00 +3°C° 0 mm 4 mps 750 mmHg 85%
    15:00 +3°C° 0 mm 4 mps 749 mmHg 84%
    16:00 +2°C° 0 mm 5 mps 748 mmHg 86%
    17:00 +2°C° 0 mm 5 mps 747 mmHg 87%
    18:00 +2°C° 0 mm 6 mps 746 mmHg 89%
    19:00 +2°C° 0.2 mm 6 mps 745 mmHg 88%
    20:00 +2°C° 0.2 mm 6 mps 743 mmHg 88%
    21:00 +2°C° 0.2 mm 7 mps 742 mmHg 87%
    22:00 +2°C° 1 mm 7 mps 741 mmHg 86%
    23:00 +2°C° 1 mm 7 mps 740 mmHg 85%

    Tomorrow, 22 January, Tuesday

    Time Temperature Precipitation Wind Pressure Humidity
    00:00 +1°C° 1 mm 8 mps 739 mmHg 84%
    01:00 +1°C° 0.2 mm 6 mps 739 mmHg 82%
    02:00 0°C° 0.2 mm 5 mps 739 mmHg 79%
    03:00 -1°C° 0.2 mm 4 mps 739 mmHg 76%
    04:00 -1°C° 0 mm 4 mps 739 mmHg 78%
    05:00 -1°C° 0 mm 4 mps 738 mmHg 80%
    06:00 -2°C° 0 mm 4 mps 738 mmHg 83%
    07:00 -2°C° 0 mm 4 mps 738 mmHg 83%
    08:00 -1°C° 0 mm 3 mps 738 mmHg 82%
    09:00 -1°C° 0 mm 3 mps 738 mmHg 82%
    10:00 0°C° 0 mm 3 mps 738 mmHg 79%
    11:00 +1°C° 0 mm 3 mps 737 mmHg 75%
    12:00 +2°C° 0 mm 3 mps 737 mmHg 72%
    13:00 +2°C° 0.6 mm 3 mps 737 mmHg 76%
    14:00 +1°C° 0.6 mm 3 mps 736 mmHg 80%
    15:00 +1°C° 0.6 mm 3 mps 736 mmHg 84%
    16:00 0°C° 0.1 mm 3 mps 736 mmHg 84%
    17:00 0°C° 0.1 mm 3 mps 736 mmHg 83%
    18:00 -1°C° 0.1 mm 3 mps 736 mmHg 83%
    19:00 -2°C° 0 mm 3 mps 736 mmHg 84%
    20:00 -2°C° 0 mm 3 mps 737 mmHg 85%
    21:00 -2°C° 0 mm 3 mps 737 mmHg 86%
    22:00 -2°C° 0 mm 3 mps 737 mmHg 86%
    23:00 -4°C° 0 mm 3 mps 737 mmHg 86%

    Day after tomorrow, 23 January, Wednesday

    Time Temperature Precipitation Wind Pressure Humidity
    00:00 -4°C° 0 mm 3 mps 737 mmHg 86%
    01:00 -4°C° 0 mm 3 mps 737 mmHg 85%
    02:00 -4°C° 0 mm 3 mps 738 mmHg 85%
    03:00 -3°C° 0 mm 2 mps 738 mmHg 85%
    04:00 -3°C° 0 mm 2 mps 738 mmHg 86%
    05:00 -3°C° 0 mm 2 mps 739 mmHg 86%
    06:00 -3°C° 0 mm 2 mps 739 mmHg 86%
    07:00 -3°C° 0 mm 2 mps 740 mmHg 86%
    08:00 -2°C° 0 mm 2 mps 740 mmHg 85%
    09:00 -2°C° 0 mm 2 mps 741 mmHg 85%
    10:00 -1°C° 0 mm 2 mps 741 mmHg 82%
    11:00 +1°C° 0 mm 2 mps 742 mmHg 79%
    12:00 +1°C° 0 mm 3 mps 742 mmHg 76%
    13:00 +2°C° 0 mm 2 mps 743 mmHg 76%
    14:00 +2°C° 0 mm 2 mps 743 mmHg 76%
    15:00 +2°C° 0 mm 2 mps 743 mmHg 77%
    16:00 +1°C° 0 mm 2 mps 743 mmHg 79%
    17:00 -1°C° 0 mm 2 mps 744 mmHg 81%
    18:00 0°C° 0 mm 1 mps 745 mmHg 83%
    19:00 0°C° 0 mm 1 mps 745 mmHg 82%
    20:00 0°C° 0 mm 1 mps 746 mmHg 82%
    21:00 0°C° 0 mm 1 mps 746 mmHg 82%
    22:00 0°C° 0 mm 1 mps 746 mmHg 82%
    23:00 0°C° 0 mm 1 mps 747 mmHg 83%

    24 January, Thursday

    Time Temperature Precipitation Wind Pressure Humidity
    00:00 0°C° 0 mm 1 mps 747 mmHg 83%
    01:00 0°C° 0 mm 1 mps 747 mmHg 85%
    02:00 0°C° 0 mm 1 mps 748 mmHg 86%
    03:00 0°C° 0 mm 1 mps 748 mmHg 88%
    04:00 0°C° 0 mm 1 mps 748 mmHg 88%
    05:00 0°C° 0 mm 1 mps 748 mmHg 88%
    06:00 0°C° 0 mm 1 mps 748 mmHg 88%
    07:00 -2°C° 0 mm 2 mps 748 mmHg 88%
    08:00 -1°C° 0 mm 2 mps 749 mmHg 88%
    09:00 -1°C° 0 mm 3 mps 749 mmHg 87%
    10:00 0°C° 0.1 mm 3 mps 749 mmHg 87%
    11:00 0°C° 0.1 mm 3 mps 749 mmHg 87%
    12:00 0°C° 0.1 mm 4 mps 749 mmHg 86%
    13:00 0°C° 0.7 mm 4 mps 748 mmHg 89%
    14:00 0°C° 0.7 mm 4 mps 748 mmHg 91%
    15:00 0°C° 0.7 mm 5 mps 747 mmHg 94%
    16:00 +1°C° 0.1 mm 5 mps 747 mmHg 95%
    17:00 +1°C° 0.1 mm 4 mps 747 mmHg 95%
    18:00 +1°C° 0.1 mm 4 mps 747 mmHg 96%
    19:00 +3°C° 0 mm 4 mps 747 mmHg 97%
    20:00 +3°C° 0 mm 3 mps 748 mmHg 97%
    21:00 +4°C° 0 mm 3 mps 748 mmHg 97%
    22:00 +4°C° 0 mm 3 mps 748 mmHg 97%
    23:00 +4°C° 0 mm 3 mps 748 mmHg 96%

    25 January, Friday

    Time Temperature Precipitation Wind Pressure Humidity
    00:00 +4°C° 0 mm 3 mps 748 mmHg 96%
    01:00 +4°C° 0 mm 3 mps 748 mmHg 96%
    02:00 +4°C° 0 mm 3 mps 748 mmHg 96%
    03:00 +5°C° 0 mm 3 mps 748 mmHg 96%
    04:00 +4°C° 0 mm 3 mps 747 mmHg 96%
    05:00 +4°C° 0 mm 3 mps 747 mmHg 96%
    06:00 +3°C° 0 mm 4 mps 747 mmHg 96%
    07:00 +4°C° 0 mm 4 mps 748 mmHg 95%
    08:00 +4°C° 0 mm 4 mps 748 mmHg 95%
    09:00 +4°C° 0 mm 4 mps 748 mmHg 94%
    10:00 +5°C° 0 mm 4 mps 748 mmHg 92%
    11:00 +6°C° 0 mm 4 mps 748 mmHg 90%
    12:00 +7°C° 0 mm 4 mps 748 mmHg 87%
    13:00 +7°C° 0 mm 4 mps 747 mmHg 87%
    14:00 +7°C° 0 mm 4 mps 747 mmHg 86%
    15:00 +7°C° 0 mm 4 mps 747 mmHg 86%
    16:00 +7°C° 0 mm 4 mps 747 mmHg 87%
    17:00 +6°C° 0 mm 4 mps 746 mmHg 89%
    18:00 +6°C° 0 mm 4 mps 746 mmHg 91%
    19:00 +6°C° 0.1 mm 4 mps 746 mmHg 91%
    20:00 +6°C° 0.1 mm 4 mps 746 mmHg 92%
    21:00 +6°C° 0.1 mm 4 mps 746 mmHg 93%
    22:00 +6°C° 0.3 mm 4 mps 746 mmHg 94%
    23:00 +6°C° 0.3 mm 4 mps 745 mmHg 95%

    26 January, Saturday

    Time Temperature Precipitation Wind Pressure Humidity
    00:00 +7°C° 0.3 mm 3 mps 745 mmHg 96%
    01:00 +7°C° 0.2 mm 3 mps 744 mmHg 96%
    02:00 +7°C° 0.2 mm 4 mps 743 mmHg 95%
    03:00 +7°C° 0.2 mm 4 mps 742 mmHg 95%
    04:00 +7°C° 0 mm 4 mps 741 mmHg 94%
    05:00 +7°C° 0 mm 5 mps 740 mmHg 93%
    06:00 +7°C° 0 mm 5 mps 739 mmHg 92%
    07:00 +7°C° 0 mm 6 mps 738 mmHg 91%
    08:00 +8°C° 0 mm 6 mps 737 mmHg 91%
    09:00 +8°C° 0 mm 6 mps 736 mmHg 91%
    10:00 +8°C° 0.8 mm 6 mps 735 mmHg 91%
    11:00 +8°C° 0.8 mm 6 mps 734 mmHg 91%
    12:00 +7°C° 0.8 mm 6 mps 732 mmHg 91%
    13:00 +7°C° 0.2 mm 5 mps 731 mmHg 86%
    14:00 +7°C° 0.2 mm 4 mps 729 mmHg 81%
    15:00 +8°C° 0.2 mm 3 mps 727 mmHg 76%
    16:00 +7°C° 0 mm 2 mps 727 mmHg 79%
    17:00 +6°C° 0 mm 2 mps 727 mmHg 82%
    18:00 +7°C° 0 mm 1 mps 726 mmHg 86%
    19:00 +5°C° 0.1 mm 2 mps 727 mmHg 86%
    20:00 +4°C° 0.1 mm 4 mps 728 mmHg 87%
    21:00 +3°C° 0.1 mm 6 mps 729 mmHg 88%
    22:00 +2°C° 0.4 mm 7 mps 730 mmHg 85%
    23:00 +1°C° 0.4 mm 9 mps 731 mmHg 83%
    Show more